Probability
5 4 3 3 1 0 0 0 0 0 0 0 1 2 3 4 2 1 2 2 1 0 0 0 0 0 0 0 0 0 0 0 0 0 1 1 1 0 0 0 0 0 0
5 4 4 3 2 1 0 0 0 0 0 1 2 3 4 5 5 4 3 3 1 1 1 1 0 0 0 0 0 0 0 0 1 1 1 1 1 0 0 0 0 0 0
5 6 6 5 4 3 3 2 2 1 1 2 4 5 6 6 6 6 5 4 2 1 2 2 0 0 0 0 0 0 0 0 1 2 2 2 2 1 0 0 0 0 0
6 7 8 6 6 6 6 6 5 4 3 3 5 6 7 6 6 6 6 5 2 2 2 2 1 1 1 0 0 0 0 0 1 1 2 3 3 2 1 0 0 0 0
6 8 8 7 7 7 7 8 8 6 4 3 5 7 7 7 7 6 6 6 4 4 4 4 3 3 2 0 0 0 0 0 0 0 1 2 4 4 2 1 0 0 0
8 8 8 7 7 6 7 7 8 8 5 4 5 7 8 8 7 6 6 6 6 6 6 6 6 5 3 1 0 0 0 0 0 1 2 3 4 5 5 3 1 1 1
10 10 10 9 8 6 6 6 8 9 8 5 5 7 9 9 7 6 6 7 8 8 7 6 6 6 5 4 2 0 0 0 1 3 4 5 4 5 5 5 4 3 2
10 10 10 10 8 7 7 7 8 9 9 8 7 7 8 7 6 5 5 6 7 7 7 6 6 6 6 6 4 2 1 0 0 2 4 4 3 3 4 5 5 4 3
7 8 8 8 8 8 8 8 9 9 10 9 9 8 8 6 5 3 3 6 8 8 7 6 6 6 5 5 4 3 2 1 1 1 2 3 3 2 2 4 5 5 4
3 4 6 6 7 8 8 9 9 10 10 10 10 10 9 8 6 3 3 7 9 9 8 7 6 6 4 3 3 4 4 4 3 3 2 3 3 2 2 4 6 6 6
1 2 4 5 6 6 7 8 9 10 10 10 11 11 11 10 8 4 3 6 9 10 9 8 7 6 3 1 1 3 4 5 5 4 4 3 3 4 4 5 6 7 8
0 1 2 4 4 4 5 6 7 9 10 11 12 12 11 10 9 5 2 3 6 9 11 10 7 5 2 1 0 1 2 3 4 5 5 4 4 4 4 4 5 7 8
0 1 2 3 3 3 3 4 5 7 9 11 12 11 10 10 11 9 5 2 3 6 9 8 4 2 1 0 0 0 0 1 3 5 6 6 5 4 4 4 4 6 7
1 2 3 3 3 3 4 4 5 6 8 9 10 10 9 11 12 12 10 7 5 5 5 4 2 1 0 0 0 0 0 1 2 4 6 7 6 5 4 3 3 4 5
2 2 2 2 2 3 4 5 5 6 6 7 8 9 9 10 11 11 10 8 7 6 6 5 5 4 3 1 0 0 0 0 1 2 4 5 4 4 4 4 3 3 4
1 1 1 1 1 2 3 4 4 4 4 5 6 7 8 7 6 6 4 4 4 5 6 8 8 8 7 5 2 1 1 1 0 0 1 2 2 4 4 4 4 3 3
0 0 1 1 2 3 3 3 3 3 3 3 3 4 4 3 2 2 1 1 1 3 5 7 9 9 9 8 5 3 3 2 1 0 0 1 3 3 3 3 3 3 2
1 1 2 3 3 3 3 3 3 3 3 3 2 1 1 1 0 0 0 1 3 4 5 6 7 8 9 8 7 5 4 4 2 1 1 3 4 3 1 1 2 2 2
2 3 3 3 3 3 3 3 3 3 3 3 2 1 0 0 0 0 0 1 3 4 4 4 5 6 7 7 7 6 6 5 4 3 4 4 4 3 1 0 1 1 1
3 3 3 3 3 3 3 3 3 3 4 4 3 2 1 0 0 1 1 1 2 3 3 3 4 6 6 6 6 6 6 6 5 5 5 4 3 3 1 1 0 0 0
3 3 3 3 3 3 3 3 3 3 3 4 3 2 1 1 1 2 1 1 2 3 3 3 3 5 6 6 6 6 6 5 4 4 4 3 3 3 3 2 1 0 0
3 3 3 3 3 3 3 3 3 2 2 2 2 2 1 1 2 2 1 1 2 2 2 2 2 3 3 3 3 3 3 3 3 2 3 3 3 2 2 2 1 0 0
3 3 3 3 2 2 2 2 1 1 1 1 1 1 0 1 1 1 0 0 1 1 1 1 2 2 1 1 1 1 1 1 1 1 1 2 1 1 1 1 0 0 0
2 2 2 1 1 1 1 1 0 1 1 1 0 0 0 0 0 0 0 0 0 0 0 1 1 1 0 0 0 0 0 0 0 0 0 0 0 0 0 0 0 0 0
1 1 1 1 1 1 0 0 0 1 2 2 1 0 0 0 0 0 0 0 0 0 0 0 0 0 0 0 0 0 0 0 0 0 0 0 0 0 0 0 0 0 0
0 0 0 0 1 1 0 0 0 1 3 3 2 1 0 0 0 0 0 0 0 0 0 0 0 0 0 0 0 0 0 0 0 0 0 0 0 0 0 0 0 0 0
Wind_Speed
3 2 2 1 1 1 1 1 1 1 1 1 1 1 1 2 2 1 1 1 1 1 1 1 2 2 1 1 1 1 1 1 3 3 2 2 2 2 2 2 3 3 4
3 2 2 2 1 1 1 1 1 1 1 1 1 1 1 1 1 1 2 1 1 2 2 1 2 2 2 2 1 2 2 2 2 3 2 2 2 2 2 2 2 3 4
3 2 2 1 2 2 2 1 1 1 1 1 1 1 2 2 2 2 2 2 2 3 3 2 3 2 2 2 2 2 2 2 2 2 3 2 2 2 2 2 3 3 4
3 3 2 3 3 2 2 1 1 1 1 2 2 2 2 2 2 2 2 2 3 3 3 3 3 3 3 3 3 3 2 2 2 2 3 2 2 2 2 2 3 3 4
3 3 3 2 2 2 1 1 1 1 1 1 2 2 3 2 2 2 2 3 3 3 3 3 4 4 4 3 3 3 2 2 2 2 3 2 2 2 3 2 4 3 4
3 3 2 2 2 2 2 1 1 1 1 1 2 2 3 3 4 4 3 3 3 4 4 4 4 4 5 5 5 4 4 4 3 3 3 4 4 4 3 4 3 3 4
2 2 2 2 2 2 2 1 2 2 2 2 2 2 3 4 5 5 4 3 3 4 4 4 4 4 4 4 5 5 5 6 6 4 5 5 5 4 4 4 4 4 5
1 1 1 2 2 2 1 2 2 2 2 2 3 3 3 5 6 5 5 3 3 4 4 4 4 5 4 4 4 4 5 5 6 5 5 6 6 5 5 5 5 4 4
0 1 2 2 3 2 2 3 2 2 2 2 2 3 4 5 6 5 3 3 3 4 4 4 4 5 6 4 3 4 5 5 5 7 8 7 7 6 4 3 3 3 4
1 2 2 2 2 3 3 3 2 2 3 3 3 3 3 4 6 5 4 2 3 4 3 4 5 5 6 4 3 4 5 6 5 4 4 5 5 5 5 5 5 4 3
2 1 1 1 2 2 2 2 1 2 2 2 3 3 3 4 5 5 4 2 3 3 3 3 4 6 6 5 3 4 6 5 4 4 3 3 3 3 3 4 4 5 5
1 1 1 2 2 1 1 1 1 1 2 2 3 4 3 3 3 4 4 4 3 3 3 3 3 5 5 4 3 4 5 3 2 2 3 3 3 4 4 4 4 5 5
1 1 2 2 1 1 1 1 1 1 1 2 2 3 4 3 3 5 5 5 5 3 3 4 4 5 4 4 4 4 3 2 2 2 3 4 4 4 4 3 4 4 5
1 2 2 1 2 1 1 1 1 1 2 2 2 3 3 3 3 3 3 3 4 4 4 4 4 3 3 3 4 3 2 2 2 3 4 4 3 3 3 3 3 3 3
1 2 2 1 1 1 1 2 2 3 3 3 3 3 3 4 5 5 4 3 3 3 2 2 2 2 2 2 2 2 2 2 2 3 3 3 3 3 3 3 2 2 2
1 2 2 1 2 1 1 2 3 4 4 4 5 4 4 5 7 6 6 6 6 3 1 1 2 2 2 3 3 3 2 2 3 3 3 3 3 3 3 3 2 2 3
2 2 2 1 2 2 1 2 3 4 4 4 5 5 5 6 6 6 6 5 3 1 1 2 2 3 3 3 3 3 3 3 3 2 2 3 3 3 3 3 3 2 3
2 2 2 2 2 2 2 2 2 2 3 4 4 5 6 6 6 6 5 3 2 1 2 2 3 3 3 3 3 3 3 2 2 2 2 2 2 2 3 3 3 3 3
2 1 1 1 1 2 2 2 2 2 3 3 4 4 5 5 5 5 3 1 2 3 2 3 3 3 3 3 3 3 2 2 2 2 2 2 2 3 3 3 3 3 3
2 2 1 1 1 1 1 1 2 2 3 3 4 4 3 2 3 3 2 2 3 3 3 3 3 3 2 2 2 2 2 2 2 2 2 3 3 2 3 3 3 3 3
1 1 1 1 1 2 2 2 2 2 3 4 4 4 4 3 3 4 3 3 3 3 3 3 3 2 2 2 2 2 3 2 2 2 2 3 3 2 2 2 3 3 3
1 1 1 1 1 1 2 2 2 3 4 4 4 4 4 3 3 3 3 3 3 3 3 2 2 2 2 2 2 2 3 3 3 3 3 3 2 2 2 2 2 2 2
1 1 1 1 1 2 2 2 2 3 3 3 3 3 2 3 3 3 3 4 3 3 2 2 2 2 2 2 2 2 2 3 3 3 3 3 2 2 2 2 3 3 2
0 1 1 1 1 1 2 3 3 3 3 3 3 3 3 3 3 3 3 3 3 3 2 2 2 3 4 3 2 2 2 3 3 3 3 3 3 2 2 2 2 2 2
0 1 1 1 2 2 2 2 3 3 2 2 3 3 3 3 3 3 3 3 3 3 3 3 2 3 4 5 4 4 4 4 3 3 3 2 3 3 2 2 2 2 2
0 1 1 1 2 2 2 2 2 2 2 2 3 3 3 3 3 3 3 3 3 3 3 3 4 4 5 4 5 5 4 4 3 3 2 2 2 2 2 2 2 2 2
Wind_Direction
183 185 186 196 197 213 225 255 266 288 312 308 305 324 331 341 344 336 314 324 323 317 325 333 306 296 296 287 269 252 243 227 251 275 263 273 242 254 255 236 227 225 232
180 178 189 194 190 211 250 266 264 273 283 279 290 313 313 320 318 307 305 304 276 279 286 290 294 295 290 283 265 259 253 239 237 269 278 267 253 255 250 241 241 236 240
165 173 183 199 206 221 244 266 275 270 284 298 305 296 300 300 298 286 276 278 276 273 268 262 271 273 279 275 265 264 261 257 246 260 277 264 258 270 258 258 255 250 248
166 174 189 213 218 222 230 239 254 257 267 282 287 285 283 283 287 285 285 282 282 284 281 271 263 253 255 255 255 258 257 255 254 262 275 274 263 272 250 253 261 248 252
170 187 211 223 225 222 234 245 250 261 272 269 279 295 295 289 292 293 283 275 276 284 287 281 273 274 265 254 260 252 240 246 254 260 268 277 267 256 247 241 252 262 250
169 204 217 212 220 228 244 255 269 286 291 293 285 291 298 298 309 300 283 271 266 270 280 283 281 275 278 268 265 254 231 230 241 247 256 263 264 255 250 241 245 256 259
175 216 230 218 225 244 254 268 266 267 271 282 287 287 288 294 303 302 289 271 269 271 273 279 285 291 283 280 274 264 251 244 232 229 247 256 260 250 246 250 240 243 250
161 209 237 230 241 248 243 253 261 256 255 264 281 282 287 299 306 299 293 273 278 280 276 273 276 290 291 285 279 275 267 262 247 237 244 254 259 256 240 245 252 258 264
78 268 258 239 242 249 250 257 252 251 263 267 277 281 288 299 309 304 295 278 284 288 288 291 287 290 297 294 275 276 281 281 268 254 249 257 265 265 256 252 248 248 262
255 260 257 240 238 250 255 257 259 252 263 277 287 284 285 294 309 309 295 278 291 297 302 303 296 295 299 291 267 269 278 284 293 293 277 275 272 265 246 232 233 238 249
260 268 275 263 250 248 260 269 283 277 283 289 291 294 291 291 305 308 298 268 273 287 298 304 304 303 297 290 269 265 271 281 290 289 291 295 294 282 264 250 232 229 236
293 296 294 289 277 270 280 312 321 299 297 298 301 305 305 305 308 309 299 277 277 263 278 285 296 309 305 306 300 304 299 295 295 299 298 297 296 294 288 279 259 247 246
360 319 307 316 318 316 279 287 305 294 275 290 298 301 307 313 311 310 305 291 284 267 279 293 304 314 312 313 319 327 328 318 310 299 293 290 287 288 292 290 284 270 264
309 299 303 314 317 321 310 279 265 273 273 281 287 292 299 306 309 318 315 302 288 282 289 300 302 316 321 318 328 330 324 314 302 293 294 296 301 305 303 302 296 296 288
274 291 301 297 287 303 301 275 254 252 237 238 257 266 284 293 290 293 300 300 296 287 301 314 326 335 337 329 324 324 326 329 311 305 309 313 316 316 314 320 308 297 285
251 282 284 290 291 278 279 305 294 264 271 256 256 258 266 268 291 304 303 298 297 296 291 287 286 294 294 297 302 308 311 307 299 298 301 303 303 304 308 313 311 300 292
221 252 275 276 271 273 280 281 299 314 309 289 285 285 280 293 301 307 310 309 307 262 240 270 274 277 281 284 285 284 283 284 284 289 295 297 298 302 304 310 312 310 309
233 240 249 257 264 268 269 272 272 290 309 309 300 292 296 301 305 309 314 332 333 310 275 274 277 280 284 286 284 285 287 295 292 288 293 296 297 299 302 304 304 308 307
238 245 251 263 274 276 275 282 285 284 288 298 310 312 306 306 306 312 324 308 281 277 276 279 280 281 282 286 292 294 295 299 302 300 302 304 301 297 295 297 302 313 308
249 257 269 264 279 286 284 288 295 293 293 295 296 300 317 327 326 323 320 302 289 284 282 278 276 274 278 287 291 293 297 301 304 305 310 307 302 297 295 299 301 304 304
247 254 280 292 276 281 288 290 290 289 290 292 292 295 293 287 288 294 300 297 289 287 289 290 291 291 290 292 292 296 297 298 301 304 305 301 298 295 294 296 297 296 302
212 231 252 261 275 286 291 293 294 293 293 293 300 308 301 302 304 305 307 304 299 295 297 295 297 301 297 299 298 296 296 298 302 303 302 302 301 297 295 299 306 305 303
210 246 263 273 273 283 287 290 291 292 294 298 302 308 312 309 307 309 313 318 320 317 318 315 313 317 320 316 304 289 290 296 298 298 295 293 293 292 294 296 301 305 308
233 261 267 276 284 286 293 300 302 302 302 308 314 316 315 311 311 317 319 322 327 329 337 342 333 328 330 329 317 306 302 302 300 290 285 285 289 292 292 292 295 296 295
25 311 290 280 281 287 295 301 307 313 316 319 320 318 317 316 318 321 325 329 331 333 334 335 331 328 327 326 326 323 322 318 306 302 289 280 284 289 290 289 291 295 294
332 302 296 293 294 296 297 299 305 314 312 313 314 312 315 319 319 319 325 331 329 328 329 327 328 329 329 325 328 330 325 320 316 305 285 277 281 288 298 288 289 291 298